Location: Azul
(36.7830°S, 59.8500°W)
Time: 19:07:53
(UTC-03:00)

ZACube-1 - Pass Details

Date: 24 October 2021
Orbit: 584 x 664 km, 97.6° (Epoch: 07 December)

Event Time Altitude Azimuth Distance (km) Brightness Sun altitude
Rises 03:44:38 0° 46° (NE) 2,918 ? -25.4°
Reaches altitude 10° 03:47:10 10° 60° (ENE) 2,033 ? -25.0°
Maximum altitude 03:50:37 23° 112° (ESE) 1,404 ? -24.5°
Drops below altitude 10° 03:54:09 10° 162° (SSE) 2,090 ? -23.9°
Sets 03:56:47 0° 176° (S) 3,021 ? -23.5°
